STARLINK-2483 (48140 NORAD) Tracking and Keplerian Element Data

This shows tracking and keplerian element data for the satellite.

Feedback or suggestion? Click here.




ElementValue
Catalog48140
NameSTARLINK-2483
Epoch Orbit180
Epoch Day136.83334491
Epoch Year2021
RAAN146.2504
Inclination53.0438
Eccentricity0.0001179
Argument of Perigee75.7462
Mean Anonmoly186.1836
Mean Motion15.54423818
Decay Rate-0.01176781
L11 48140U 21027BA 21136.83334491 -.01176781 00000-0 -19584-1 0 9998
L22 48140 53.0438 146.2504 0001179 75.7462 186.1836 15.54423818 1806

Live tracking and technical data element details for STARLINK-2483 (NORAD 48140). STARLINK-2483 can be tracked NOW for your location showing map with azimuth and elevation plus other details from your city location.

Track the satellite on the map from your city or location and see movement details for azimuth, elevation, latitude, longitude, range, height, and movement on the map or in text.







IsCatalogInMostPopularTable: catalog: 48140, numindb: 19
Update: records affected: 1



GetName: 48140 STARLINK-2483

Hit Count: updated at: Mon, 17 May 2021 16:22:59 GMT